When you browse on this site, cookies collect data to enhance your experience and personalize the content and advertising you see.
Visit our Privacy Policy to learn more. By continuing to use the site, you agree to this use of cookies and data.
  • In Hungary
  • List of Countries
  • For 7 days
  • Water Temperature
  • Weather Map
  • News
  • Weather Widgets
  • user-avatar
    Login

    Hourly Weather Oborniki Slaskie

    Today, 12 November, Tuesday

    Time Temperature Precipitation Wind Pressure Humidity
    00:00 +3°C° 0 mm 4 mps 742 mmHg 82%
    01:00 +3°C° 0 mm 4 mps 741 mmHg 81%
    02:00 +3°C° 0 mm 4 mps 741 mmHg 82%
    03:00 +4°C° 0 mm 4 mps 741 mmHg 82%
    04:00 +4°C° 0 mm 4 mps 741 mmHg 83%
    05:00 +4°C° 0 mm 4 mps 741 mmHg 82%
    06:00 +5°C° 0 mm 4 mps 741 mmHg 82%
    07:00 +5°C° 0 mm 3 mps 742 mmHg 80%
    08:00 +5°C° 0 mm 3 mps 742 mmHg 79%
    09:00 +7°C° 0 mm 3 mps 742 mmHg 79%
    10:00 +7°C° 0 mm 2 mps 742 mmHg 79%
    11:00 +7°C° 0 mm 2 mps 742 mmHg 78%
    12:00 +7°C° 0 mm 2 mps 742 mmHg 78%
    13:00 +7°C° 0 mm 2 mps 742 mmHg 73%
    14:00 +8°C° 0.3 mm 1 mps 741 mmHg 77%
    15:00 +7°C° 0.3 mm 1 mps 741 mmHg 82%
    16:00 +7°C° 0.3 mm 1 mps 741 mmHg 87%
    17:00 +7°C° 0.5 mm 1 mps 741 mmHg 88%
    18:00 +6°C° 0.5 mm 1 mps 741 mmHg 90%
    19:00 +6°C° 0.5 mm 1 mps 741 mmHg 92%
    20:00 +6°C° 0.8 mm 1 mps 740 mmHg 93%
    21:00 +6°C° 0.8 mm 1 mps 739 mmHg 94%
    22:00 +6°C° 0.8 mm 1 mps 739 mmHg 95%
    23:00 +6°C° 1 mm 1 mps 739 mmHg 96%

    Tomorrow, 13 November, Wednesday

    Time Temperature Precipitation Wind Pressure Humidity
    00:00 +5°C° 1 mm 2 mps 738 mmHg 96%
    01:00 +5°C° 1 mm 2 mps 738 mmHg 97%
    02:00 +6°C° 0.4 mm 2 mps 738 mmHg 97%
    03:00 +7°C° 0.4 mm 1 mps 737 mmHg 97%
    04:00 +7°C° 0.4 mm 1 mps 737 mmHg 97%
    05:00 +7°C° 0 mm 1 mps 737 mmHg 97%
    06:00 +7°C° 0 mm 1 mps 736 mmHg 97%
    07:00 +7°C° 0 mm 1 mps 736 mmHg 97%
    08:00 +7°C° 0.2 mm 1 mps 736 mmHg 96%
    09:00 +7°C° 0.2 mm 1 mps 736 mmHg 96%
    10:00 +6°C° 0.2 mm 2 mps 735 mmHg 96%
    11:00 +6°C° 1 mm 2 mps 735 mmHg 96%
    12:00 +5°C° 1 mm 3 mps 735 mmHg 96%
    13:00 +5°C° 1 mm 3 mps 735 mmHg 96%
    14:00 +5°C° 0.5 mm 3 mps 735 mmHg 95%
    15:00 +5°C° 0.5 mm 3 mps 735 mmHg 95%
    16:00 +4°C° 0.5 mm 3 mps 736 mmHg 94%
    17:00 +4°C° 0.3 mm 3 mps 736 mmHg 94%
    18:00 +4°C° 0.3 mm 3 mps 736 mmHg 94%
    19:00 +4°C° 0.3 mm 3 mps 736 mmHg 94%
    20:00 +4°C° 1.5 mm 4 mps 736 mmHg 94%
    21:00 +4°C° 1.5 mm 4 mps 736 mmHg 94%
    22:00 +3°C° 1.5 mm 5 mps 737 mmHg 94%
    23:00 +3°C° 0.3 mm 5 mps 737 mmHg 93%

    Day after tomorrow, 14 November, Thursday

    Time Temperature Precipitation Wind Pressure Humidity
    00:00 +2°C° 0.3 mm 5 mps 737 mmHg 93%
    01:00 +2°C° 0.3 mm 5 mps 738 mmHg 92%
    02:00 +3°C° 0.5 mm 4 mps 738 mmHg 92%
    03:00 +3°C° 0.5 mm 4 mps 739 mmHg 93%
    04:00 +2°C° 0.5 mm 3 mps 739 mmHg 93%
    05:00 +3°C° 0 mm 3 mps 740 mmHg 91%
    06:00 +4°C° 0 mm 2 mps 740 mmHg 90%
    07:00 +5°C° 0 mm 1 mps 741 mmHg 88%
    08:00 +5°C° 0 mm 1 mps 741 mmHg 84%
    09:00 +4°C° 0 mm 2 mps 742 mmHg 79%
    10:00 +5°C° 0 mm 2 mps 742 mmHg 75%
    11:00 +6°C° 0 mm 2 mps 742 mmHg 73%
    12:00 +6°C° 0 mm 2 mps 743 mmHg 70%
    13:00 +7°C° 0 mm 2 mps 743 mmHg 67%
    14:00 +6°C° 0 mm 2 mps 743 mmHg 72%
    15:00 +6°C° 0 mm 2 mps 743 mmHg 76%
    16:00 +5°C° 0 mm 2 mps 743 mmHg 81%
    17:00 +5°C° 0 mm 2 mps 743 mmHg 83%
    18:00 +4°C° 0 mm 3 mps 743 mmHg 85%
    19:00 +3°C° 0 mm 3 mps 743 mmHg 87%
    20:00 +4°C° 0 mm 3 mps 743 mmHg 87%
    21:00 +4°C° 0 mm 4 mps 743 mmHg 87%
    22:00 +4°C° 0 mm 4 mps 742 mmHg 87%
    23:00 +4°C° 0 mm 4 mps 742 mmHg 89%

    15 November, Friday

    Time Temperature Precipitation Wind Pressure Humidity
    00:00 +4°C° 0 mm 4 mps 742 mmHg 91%
    01:00 +4°C° 0 mm 4 mps 742 mmHg 94%
    02:00 +5°C° 0 mm 5 mps 741 mmHg 92%
    03:00 +5°C° 0 mm 5 mps 741 mmHg 90%
    04:00 +6°C° 0 mm 5 mps 741 mmHg 88%
    05:00 +5°C° 0 mm 6 mps 741 mmHg 85%
    06:00 +7°C° 0 mm 6 mps 741 mmHg 82%
    07:00 +7°C° 0 mm 6 mps 741 mmHg 79%
    08:00 +10°C° 0 mm 8 mps 740 mmHg 74%
    09:00 +11°C° 0 mm 8 mps 740 mmHg 69%
    10:00 +12°C° 0 mm 8 mps 740 mmHg 63%
    11:00 +13°C° 0 mm 8 mps 740 mmHg 62%
    12:00 +15°C° 0 mm 8 mps 740 mmHg 60%
    13:00 +16°C° 0 mm 8 mps 740 mmHg 58%
    14:00 +15°C° 0 mm 8 mps 740 mmHg 61%
    15:00 +14°C° 0 mm 7 mps 740 mmHg 64%
    16:00 +14°C° 0 mm 7 mps 740 mmHg 67%
    17:00 +12°C° 0 mm 7 mps 740 mmHg 68%
    18:00 +13°C° 0 mm 6 mps 740 mmHg 70%
    19:00 +11°C° 0 mm 6 mps 741 mmHg 71%
    20:00 +11°C° 0 mm 6 mps 741 mmHg 72%
    21:00 +11°C° 0 mm 6 mps 741 mmHg 73%
    22:00 +11°C° 0 mm 6 mps 741 mmHg 75%
    23:00 +11°C° 0 mm 6 mps 741 mmHg 75%

    16 November, Saturday

    Time Temperature Precipitation Wind Pressure Humidity
    00:00 +11°C° 0 mm 6 mps 741 mmHg 74%
    01:00 +12°C° 0 mm 5 mps 741 mmHg 74%
    02:00 +11°C° 0 mm 6 mps 741 mmHg 72%
    03:00 +12°C° 0 mm 7 mps 741 mmHg 70%
    04:00 +12°C° 0 mm 8 mps 740 mmHg 68%
    05:00 +12°C° 0 mm 7 mps 741 mmHg 70%
    06:00 +11°C° 0 mm 6 mps 741 mmHg 72%
    07:00 +12°C° 0 mm 5 mps 742 mmHg 74%
    08:00 +12°C° 0 mm 5 mps 743 mmHg 74%
    09:00 +12°C° 0 mm 4 mps 743 mmHg 74%
    10:00 +12°C° 0 mm 4 mps 744 mmHg 74%
    11:00 +12°C° 0 mm 4 mps 745 mmHg 72%
    12:00 +11°C° 0 mm 3 mps 745 mmHg 69%
    13:00 +11°C° 0 mm 3 mps 745 mmHg 67%
    14:00 +12°C° 0 mm 2 mps 746 mmHg 70%
    15:00 +10°C° 0 mm 2 mps 746 mmHg 72%
    16:00 +10°C° 0 mm 1 mps 746 mmHg 75%
    17:00 +10°C° 0 mm 1 mps 747 mmHg 76%
    18:00 +8°C° 0 mm 2 mps 747 mmHg 78%
    19:00 +8°C° 0 mm 2 mps 747 mmHg 79%
    20:00 +8°C° 0 mm 2 mps 747 mmHg 80%
    21:00 +8°C° 0 mm 2 mps 747 mmHg 81%
    22:00 +8°C° 0 mm 2 mps 748 mmHg 81%
    23:00 +8°C° 0 mm 2 mps 747 mmHg 83%

    17 November, Sunday

    Time Temperature Precipitation Wind Pressure Humidity
    00:00 +9°C° 0 mm 2 mps 747 mmHg 85%
    01:00 +9°C° 0 mm 2 mps 747 mmHg 87%
    02:00 +9°C° 0 mm 3 mps 746 mmHg 87%
    03:00 +9°C° 0 mm 3 mps 746 mmHg 88%
    04:00 +9°C° 0 mm 3 mps 745 mmHg 89%
    05:00 +9°C° 0 mm 3 mps 745 mmHg 89%
    06:00 +9°C° 0 mm 3 mps 744 mmHg 88%
    07:00 +9°C° 0 mm 3 mps 744 mmHg 88%
    08:00 +10°C° 0 mm 3 mps 744 mmHg 85%
    09:00 +10°C° 0 mm 4 mps 744 mmHg 81%
    10:00 +10°C° 0 mm 5 mps 743 mmHg 78%
    11:00 +12°C° 0 mm 5 mps 743 mmHg 73%
    12:00 +13°C° 0 mm 5 mps 743 mmHg 68%
    13:00 +14°C° 0 mm 6 mps 743 mmHg 63%
    14:00 +13°C° 0 mm 5 mps 743 mmHg 67%
    15:00 +13°C° 0 mm 5 mps 743 mmHg 71%
    16:00 +12°C° 0 mm 4 mps 742 mmHg 75%
    17:00 +11°C° 0 mm 4 mps 742 mmHg 77%
    18:00 +11°C° 0 mm 4 mps 743 mmHg 78%
    19:00 +10°C° 0 mm 4 mps 743 mmHg 80%
    20:00 +10°C° 0 mm 4 mps 743 mmHg 80%
    21:00 +10°C° 0 mm 4 mps 743 mmHg 80%
    22:00 +10°C° 0 mm 4 mps 743 mmHg 80%
    23:00 +8°C° 0 mm 4 mps 742 mmHg 80%
    Show more